^^
Meteo Knjazevac Station Historical Data
Daily Summary for May 1, 2021 Units:  Metric    English   Both
Daily Weekly Monthly Yearly Custom
  High: Low: Average:
Temperature: 3.2 °C 0.3 °C 1.9 °C
Dew Point: -0.3 °C -2.7 °C -1.6 °C
Humidity: 80% 77% 78%
Wind Speed: 20.9km/h 1.6km/h 8.7km/h
Wind Gust: 30.6km/h - -
Wind- - SW
Pressure: 1014.4 hPa 1014.1 hPa -
Precipitation: 0 mm    
Historical Graphs
 
 
Tabular Data for May 1, 2021
Time Temperature Dew Point Pressure Wind Wind Speed Wind Gust Humidity Rainfall Rate (Hourly) solar Conditions
00:00 0.4 °C -2.7 °C 1014.4 hPa South 4.8 km/h 11.3 km/h 80% 0 mm 0 W/m2
00:10 0.3 °C -2.7 °C 1014.4 hPa SE 3.2 km/h 6.4 km/h 80% 0 mm 0 W/m2
00:20 0.4 °C -2.7 °C 1014.4 hPa WSW 3.2 km/h 6.4 km/h 80% 0 mm 0 W/m2
00:30 0.5 °C -2.7 °C 1014.1 hPa SSW 1.6 km/h 16.1 km/h 79% 0 mm 0 W/m2
00:40 0.5 °C -2.7 °C 1014.1 hPa SSW 4.8 km/h 16.1 km/h 79% 0 mm 0 W/m2
00:50 0.6 °C -2.6 °C 1014.1 hPa SSW 4.8 km/h 16.1 km/h 79% 0 mm 0 W/m2
01:00 0.6 °C -2.6 °C 1014.1 hPa ESE 1.6 km/h 12.9 km/h 79% 0 mm 0 W/m2
01:10 0.5 °C -2.7 °C 1014.1 hPa West 3.2 km/h 16.1 km/h 79% 0 mm 0 W/m2
01:20 0.7 °C -2.5 °C 1014.1 hPa WSW 9.7 km/h 17.7 km/h 79% 0 mm 0 W/m2
01:30 0.9 °C -2.4 °C 1014.1 hPa WSW 12.9 km/h 19.3 km/h 78% 0 mm 0 W/m2
01:40 1.2 °C -2.4 °C 1014.4 hPa SW 16.1 km/h 30.6 km/h 77% 0 mm 0 W/m2
01:50 1.4 °C -2.2 °C 1014.4 hPa SW 14.5 km/h 25.7 km/h 77% 0 mm 0 W/m2
02:00 1.4 °C -2.2 °C 1014.4 hPa WSW 20.9 km/h 25.7 km/h 77% 0 mm 0 W/m2
02:10 1.5 °C -2.1 °C 1014.4 hPa SW 16.1 km/h 27.4 km/h 77% 0 mm 0 W/m2
02:20 1.6 °C -2.1 °C 1014.1 hPa SW 12.9 km/h 22.5 km/h 77% 0 mm 0 W/m2
02:30 1.7 °C -1.9 °C 1014.1 hPa SW 11.3 km/h 25.7 km/h 77% 0 mm 0 W/m2
02:40 1.7 °C -1.9 °C 1014.1 hPa SW 14.5 km/h 22.5 km/h 77% 0 mm 0 W/m2
02:50 1.8 °C -1.8 °C 1014.4 hPa SW 9.7 km/h 20.9 km/h 77% 0 mm 0 W/m2
03:00 1.9 °C -1.7 °C 1014.1 hPa SW 11.3 km/h 22.5 km/h 77% 0 mm 0 W/m2
03:10 1.9 °C -1.7 °C 1014.4 hPa SW 9.7 km/h 19.3 km/h 77% 0 mm 0 W/m2
03:20 2.1 °C -1.6 °C 1014.4 hPa SW 12.9 km/h 25.7 km/h 77% 0 mm 0 W/m2
03:30 2.2 °C -1.4 °C 1014.4 hPa SW 14.5 km/h 25.7 km/h 77% 0 mm 0 W/m2
03:40 2.3 °C -1.3 °C 1014.4 hPa SW 16.1 km/h 25.7 km/h 77% 0 mm 0 W/m2
03:50 2.4 °C -1.2 °C 1014.1 hPa WSW 14.5 km/h 30.6 km/h 77% 0 mm 0 W/m2
04:00 2.5 °C -0.9 °C 1014.4 hPa WSW 9.7 km/h 22.5 km/h 78% 0 mm 0 W/m2
04:10 2.6 °C -0.8 °C 1014.1 hPa SW 4.8 km/h 12.9 km/h 78% 0 mm 0 W/m2
04:20 2.6 °C -1.1 °C 1014.1 hPa SSW 4.8 km/h 11.3 km/h 77% 0 mm 0 W/m2
04:30 2.7 °C -0.9 °C 1014.1 hPa SSE 4.8 km/h 12.9 km/h 77% 0 mm 0 W/m2
04:40 2.7 °C -0.9 °C 1014.1 hPa SSW 3.2 km/h 11.3 km/h 77% 0 mm 0 W/m2
04:50 2.7 °C -0.9 °C 1014.4 hPa SW 3.2 km/h 12.9 km/h 77% 0 mm 0 W/m2
05:00 2.7 °C -0.8 °C 1014.4 hPa WNW 1.6 km/h 9.7 km/h 78% 0 mm 0 W/m2
05:10 2.7 °C -0.8 °C 1014.4 hPa SW 1.6 km/h 6.4 km/h 78% 0 mm 0 W/m2
05:20 2.6 °C -0.8 °C 1014.4 hPa West 4.8 km/h 11.3 km/h 78% 0 mm 0 W/m2
05:30 2.6 °C -0.8 °C 1014.1 hPa WSW 9.7 km/h 12.9 km/h 78% 0 mm 0 W/m2
05:40 2.7 °C -0.8 °C 1014.1 hPa SW 12.9 km/h 20.9 km/h 78% 0 mm 0 W/m2
05:50 2.9 °C -0.8 °C 1014.1 hPa SW 11.3 km/h 20.9 km/h 77% 0 mm 0 W/m2
06:00 3 °C -0.7 °C 1014.4 hPa SW 11.3 km/h 20.9 km/h 77% 0 mm 0 W/m2
06:10 3.1 °C -0.6 °C 1014.4 hPa SW 11.3 km/h 19.3 km/h 77% 0 mm 0 W/m2
06:20 3.2 °C -0.4 °C 1014.4 hPa SW 8 km/h 16.1 km/h 77% 0 mm 0 W/m2
06:30 3.2 °C -0.3 °C 1014.4 hPa SW 3.2 km/h 14.5 km/h 78% 0 mm 0 W/m2
06:40 3.2 °C -0.3 °C 1014.4 hPa SSW 4.8 km/h 14.5 km/h 78% 0 mm 0 W/m2
Knjazevac, Serbia
Compliments of Weather Underground - 2 mb